GFSFLT2_700_spd_300.txt.gz
Wind_Speed
14 15 17 19 20 19 18 17 16 15 16 16 15 14 14 13 12 12 11 11 10 9 8 7 5 5 5 4 4 4 3 1
16 15 17 18 19 19 17 16 16 15 15 15 13 13 12 11 10 10 9 9 8 7 6 6 5 4 4 4 3 1 0 4
17 17 16 17 19 19 18 17 16 14 14 13 12 11 10 9 8 7 6 6 6 4 4 3 3 2 1 1 2 3 4 3
17 17 18 17 17 18 19 18 17 16 14 13 11 10 8 7 6 5 4 3 3 2 1 1 2 3 4 5 6 7 8 9
18 17 17 19 18 18 17 18 17 16 14 13 11 9 7 6 5 3 2 2 2 3 4 5 5 7 7 8 9 10 10 7
19 18 16 17 19 20 19 17 17 17 16 14 13 11 10 8 7 6 5 5 5 6 7 7 7 8 6 4 7 10 10 17
19 18 17 16 15 16 19 18 16 15 15 15 14 13 11 10 8 7 6 6 6 8 8 7 5 3 4 7 9 12 16 19
19 19 19 18 17 15 14 16 16 15 14 12 12 11 9 8 8 7 6 6 4 4 3 5 5 6 9 11 13 15 18 19
20 19 19 19 19 18 17 14 14 15 12 10 11 10 9 8 8 8 6 4 3 4 5 6 8 10 13 15 15 18 18 15
22 21 19 19 18 17 17 16 15 13 12 10 7 6 6 7 7 7 5 5 5 7 9 11 13 15 16 16 18 18 13 11
26 23 21 18 18 17 18 15 13 14 12 9 7 5 5 6 7 6 6 7 9 11 13 15 17 17 16 17 17 12 9 9
27 25 24 22 20 19 18 16 15 13 11 10 9 9 8 8 9 10 11 13 14 15 15 17 16 16 16 17 12 9 9 9
29 30 27 24 23 20 19 17 16 14 13 12 12 11 10 11 12 12 14 16 17 16 16 18 18 15 16 14 10 8 8 9
24 23 24 24 23 21 20 20 19 17 16 15 13 12 12 12 12 13 14 15 17 16 18 18 15 15 16 13 9 9 8 9
24 21 16 20 22 24 24 25 25 22 19 16 15 15 15 15 15 16 16 16 17 17 18 15 15 15 15 13 10 10 9 10
23 20 18 23 22 24 26 25 25 24 21 20 19 18 18 16 16 17 17 18 17 17 17 16 16 15 14 13 12 11 11 11
21 22 23 31 25 26 27 28 30 29 26 23 21 20 19 18 18 17 18 18 19 17 17 16 16 15 15 14 14 12 12 13
28 31 33 31 35 33 27 28 30 27 26 24 21 20 21 21 21 18 18 19 19 17 17 16 16 16 16 15 15 13 13 14
26 31 33 35 33 31 28 27 26 25 25 26 25 23 23 22 21 19 19 19 19 18 16 16 17 16 16 16 15 15 14 15
26 30 33 33 30 30 30 29 27 27 27 24 24 25 26 22 21 20 19 19 19 18 17 16 17 17 17 17 16 16 15 14

GFSFLT2_700_spd_303.txt.gz
Wind_Speed
12 14 18 19 19 18 17 14 15 16 16 17 17 17 16 15 15 14 13 12 12 12 11 11 11 10 9 9 9 13 8 6
13 15 18 20 18 19 18 16 15 15 16 15 15 15 14 13 13 12 11 11 10 10 10 9 9 8 8 7 9 12 9 2
16 15 18 20 19 17 18 17 16 15 15 15 15 14 13 12 11 10 10 9 9 9 8 6 5 4 4 4 4 9 9 12
18 16 16 19 20 20 18 17 17 16 15 14 13 12 11 10 9 9 8 7 6 5 5 3 3 4 1 1 3 4 6 8
19 19 18 18 19 20 20 18 16 15 15 14 12 11 10 8 7 7 6 4 5 4 3 3 8 9 5 4 6 6 6 6
21 21 20 19 19 19 19 19 18 16 14 13 12 10 9 7 6 4 4 3 3 3 3 3 4 5 4 2 6 7 7 11
21 22 22 20 19 18 18 19 19 18 16 14 13 12 11 9 8 5 5 5 6 6 5 5 3 1 2 6 10 12 12 16
22 22 23 23 22 20 18 16 14 15 16 15 13 12 11 11 11 10 9 6 7 4 1 3 3 3 5 8 12 15 13 17
24 23 23 23 23 21 20 19 18 16 13 13 13 12 10 9 10 9 6 6 5 3 5 5 5 7 9 11 11 14 19 15
28 25 22 22 22 21 20 18 18 17 17 14 13 12 11 10 8 8 7 7 6 5 5 7 10 12 13 14 13 15 16 13
31 29 26 23 21 21 20 19 17 17 15 14 13 12 11 12 11 10 10 8 7 6 9 11 13 14 14 14 15 16 12 9
33 30 28 26 24 22 22 20 19 17 16 15 12 11 9 10 9 9 9 9 9 12 14 14 14 15 16 15 16 14 9 8
33 31 30 28 26 24 21 21 18 16 16 14 13 11 10 9 9 10 11 13 14 15 16 14 16 15 14 13 14 10 9 9
34 34 31 27 25 23 20 19 19 19 18 15 14 13 12 12 12 12 13 14 15 16 16 18 16 14 14 13 13 11 10 10
32 30 28 26 23 23 23 23 22 21 18 17 16 15 15 14 14 15 15 16 16 17 18 17 15 12 15 15 13 14 10 10
27 26 29 27 25 24 22 22 21 21 22 22 19 18 17 17 17 16 17 17 17 17 17 18 17 14 15 15 15 14 14 12
24 29 29 27 24 23 21 22 26 27 28 27 23 21 20 19 18 19 19 18 19 18 17 18 17 17 15 15 15 14 14 15
41 39 31 25 25 25 18 20 25 31 29 27 26 24 22 21 20 21 21 20 18 19 18 18 19 19 16 15 16 15 15 15
41 41 39 33 27 23 30 29 26 30 25 28 28 26 24 22 22 22 22 21 19 19 18 18 19 18 18 16 16 16 16 15
46 46 48 40 30 26 28 29 33 33 29 29 27 25 22 22 23 24 23 22 21 20 19 19 19 19 18 17 17 17 17 17

GFSFLT2_700_spd_306.txt.gz
Wind_Speed
10 12 18 18 18 19 19 18 19 20 21 21 20 19 19 19 18 17 17 16 15 15 15 15 15 17 19 24 21 14 4 12
10 14 18 19 19 20 19 20 19 19 20 20 20 19 18 18 17 17 16 15 14 14 13 13 13 15 17 24 20 15 9 8
13 15 19 20 19 20 20 20 20 19 19 18 17 17 16 15 16 15 14 14 13 12 12 12 12 10 10 12 6 5 7 7
14 15 19 21 20 20 20 19 19 19 18 17 16 16 16 14 13 13 12 11 11 10 10 11 11 8 3 8 1 4 6 8
16 16 20 21 21 21 21 20 19 19 17 17 16 15 14 14 12 11 10 10 9 8 8 13 10 11 3 7 5 2 2 6
19 18 20 22 21 20 20 21 20 19 18 17 15 14 14 14 12 10 7 7 7 6 6 3 5 6 8 3 2 3 7 9
20 19 20 22 22 20 20 19 19 19 17 16 16 13 12 12 13 10 5 3 7 4 1 2 4 5 5 5 6 9 11 13
23 20 20 22 22 21 19 18 17 16 14 14 14 13 10 8 8 11 10 9 8 5 4 4 3 3 7 10 8 11 13 15
24 24 21 22 23 22 21 20 17 17 15 13 10 10 10 9 12 13 13 9 10 3 3 1 3 5 8 14 15 13 12 16
26 25 25 22 20 21 20 19 18 17 17 16 16 12 13 13 9 14 9 11 9 5 3 3 7 9 11 13 14 14 14 12
29 28 27 26 22 21 21 18 19 17 15 16 15 15 14 14 16 11 9 9 6 8 6 9 10 12 13 13 13 14 15 11
31 31 29 28 26 25 22 20 19 18 17 17 16 14 13 13 10 9 10 9 9 8 10 12 14 15 13 15 14 14 13 10
31 33 31 31 29 27 24 22 20 19 18 17 16 13 12 12 9 11 10 10 9 11 13 15 15 15 14 12 13 15 12 11
29 35 33 32 29 27 24 22 22 19 20 17 17 14 14 13 11 11 11 12 11 13 14 16 15 15 15 12 13 14 12 10
33 35 35 33 30 28 26 23 25 24 23 16 18 15 14 13 12 12 12 12 13 14 16 17 15 15 14 15 15 12 10 10
32 32 32 31 30 29 28 26 24 20 19 17 18 17 16 14 14 14 14 15 14 15 16 18 16 14 16 16 18 14 12 11
28 32 30 33 34 34 31 28 24 21 21 20 21 19 17 17 17 16 16 18 16 17 16 17 17 16 14 16 17 16 16 14
30 32 30 30 34 34 33 29 23 23 22 22 21 21 21 21 19 18 19 19 19 19 18 18 18 18 17 15 16 16 17 18
37 38 34 27 31 33 32 28 25 23 21 17 19 24 25 23 20 20 20 20 20 20 18 18 19 18 19 17 16 18 19 17
42 43 43 46 47 39 33 27 25 25 28 19 14 23 25 23 22 22 22 22 19 21 19 18 19 20 19 19 17 18 17 19

GFSFLT2_700_spd_309.txt.gz
Wind_Speed
9 15 19 19 21 20 23 23 23 22 21 23 23 23 22 22 23 22 21 21 20 19 20 21 23 24 15 14 10 8 6 5
9 16 19 20 22 23 25 25 24 24 24 24 25 24 23 22 22 21 20 20 19 19 20 21 26 21 17 8 8 6 5 2
12 17 21 22 22 24 26 27 27 26 25 24 23 23 23 22 21 19 19 18 18 19 20 23 26 23 14 12 6 4 4 5
15 17 22 23 24 24 25 26 27 26 24 24 23 22 22 20 20 19 18 17 17 17 17 18 19 9 8 8 6 6 6 8
18 19 22 23 23 24 24 25 25 25 24 23 22 21 21 20 18 18 17 15 14 14 14 11 4 6 5 2 5 3 5 7
20 21 23 24 24 24 23 24 25 24 23 22 22 20 19 19 17 15 14 14 13 11 10 10 12 12 4 3 3 4 7 10
20 21 25 25 25 24 23 22 22 22 21 21 20 18 17 17 15 14 14 13 12 10 8 7 7 6 3 5 7 8 10 12
21 22 23 26 25 25 24 22 21 19 19 18 18 18 18 17 16 14 13 11 10 5 3 6 7 5 6 7 9 12 13 13
23 22 23 24 25 26 25 24 22 22 20 19 18 17 16 18 16 9 7 3 6 3 6 7 7 8 8 9 10 13 13 14
24 24 25 24 23 23 25 25 24 22 21 20 20 20 16 14 18 16 15 15 8 7 7 7 9 9 9 11 12 12 10 12
26 26 25 24 23 21 22 22 23 22 20 18 16 15 13 13 12 13 11 11 10 11 9 8 5 9 11 13 15 13 11 11
26 28 28 26 24 24 24 22 20 19 21 19 17 17 18 20 12 17 13 12 12 9 9 6 9 11 12 14 15 13 13 10
29 30 30 29 29 28 26 25 23 21 21 20 19 16 18 15 11 14 13 12 12 11 8 9 12 12 12 14 13 11 12 9
29 29 30 30 30 29 26 25 24 22 21 23 22 19 19 14 14 15 14 10 9 9 10 12 13 13 13 14 13 13 13 10
28 28 30 32 32 32 29 27 27 27 25 22 22 20 20 15 15 14 11 8 9 10 11 12 12 15 12 14 14 12 13 9
37 31 32 36 35 35 33 33 32 29 23 21 22 21 19 16 15 14 11 10 10 12 13 13 13 14 13 15 14 13 12 12
43 37 35 37 37 36 35 35 33 27 25 24 23 22 20 18 16 15 14 13 13 14 14 15 13 14 14 16 15 15 15 11
46 42 37 38 39 38 38 38 36 32 29 25 24 22 20 18 18 17 16 15 15 15 17 17 16 15 15 16 16 17 17 14
44 41 41 43 46 43 41 40 36 33 31 27 25 23 21 21 21 19 18 17 15 15 17 18 18 17 16 16 16 17 18 17
47 44 41 43 46 44 41 39 35 33 32 29 25 22 21 22 21 21 22 20 19 18 18 19 19 18 19 17 17 16 18 20